Tracking 19832 objects as of 25-Aug-2019
HD Live streaming from Space Station
objects crossing your sky now

FENGYUN 1C DEB

Track FENGYUN 1C DEB now!
10-day predictions


NORAD ID: 31731
Int'l Code: 1999-025CEE
Perigee: 824.5 km
Apogee: 843.0 km
Inclination: 99.3 °
Period: 101.4 minutes
Semi major axis: 7204 km
RCS: 0.0064 m2 (small)
Launch date: May 10, 1999
Source: People's Republic of China (PRC)
Launch site: Taiyaun Space Center, China (TSC)

Note: This is SATELLITE DEBRIS
aabbcc
Your satellite tracking list
Your tracking list is empty




NASA's NSSDC Master Catalog

Two Line Element Set (TLE):
1 31731U 99025CEE 19236.59589008  .00000571  00000-0  29320-3 0  9997
2 31731  99.2973 114.5818 0012850 187.4370 172.6616 14.19639291631059
Source of the keplerian elements: AFSPC